Waarnemingen

Advertentie
Mijn weer
Florennes, België (6456): temperatuur & dauwpunt: 15.10.2018 16:00:00 - 21.10.2018 16:00:00 (CEST)Florennes, België (6456): windsnelheid & windstoten: 15.10.2018 16:00:00 - 21.10.2018 16:00:00 (CEST)Florennes, België (6456): windrichting: 15.10.2018 16:00:00 - 21.10.2018 16:00:00 (CEST)Florennes, België (6456): luchtdruk: 15.10.2018 16:00:00 - 21.10.2018 16:00:00 (CEST)Florennes, België (6456): zicht: 15.10.2018 16:00:00 - 21.10.2018 16:00:00 (CEST)
Datum & Tijd tt [°C] td [°C] ff [km/u] ff [kn] fx [km/u] fx [kn] dd ppp [hPa] vv [km]
21.10.2018 16:00:00 15,1 5,2 4 2 11 6 N 1027,0 20
21.10.2018 15:00:00 15,0 6,7 4 2 11 6 N 1027,4 20
21.10.2018 14:00:00 14,5 4,8 4 2 - - N 1027,7 20
21.10.2018 13:00:00 13,5 5,9 4 2 7 4 N 1028,5 20
21.10.2018 12:00:00 11,9 6,1 4 2 11 6 N 1029,0 15
21.10.2018 11:00:00 8,2 5,5 4 2 - - N 1029,5 15
21.10.2018 10:00:00 7,0 4,9 4 2 7 4 N 1029,5 7
21.10.2018 09:00:00 1,3 0,8 4 2 7 4 N 1030,5 5
21.10.2018 08:00:00 0,6 -0,2 5 3 - - O 1030,4 2,6
21.10.2018 07:00:00 3,9 3,2 5 3 4 2 OZO 1030,0 2,1
21.10.2018 06:00:00 5,5 4,5 4 2 4 2 N 1030,2 3,4
21.10.2018 05:00:00 5,1 4,5 4 2 - - N 1030,5 2,0
21.10.2018 04:00:00 5,3 4,3 4 2 4 2 N 1030,7 2,7
21.10.2018 03:00:00 5,4 3,9 0 0 0 0 N 1031,0 4,9
21.10.2018 02:00:00 5,5 3,8 4 2 - - N 1031,2 4,7
21.10.2018 01:00:00 6,8 5,0 4 2 4 2 N 1031,5 5
21.10.2018 00:00:00 7,1 5,1 4 2 7 4 N 1031,5 6
20.10.2018 23:00:00 6,5 4,4 2 1 - - - 1031,5 7
20.10.2018 22:00:00 7,5 5,5 4 2 7 4 N 1031,5 8
20.10.2018 21:00:00 7,9 5,6 4 2 11 6 N 1031,5 8
20.10.2018 20:00:00 7,7 5,4 7 4 - - NNO 1031,9 8
20.10.2018 19:00:00 9,3 6,2 7 4 11 6 N 1031,2 11
20.10.2018 18:00:00 10,9 6,8 7 4 14 8 NNO 1030,9 11
20.10.2018 17:00:00 11,8 7,0 11 6 - - NNO 1030,9 12
20.10.2018 16:00:00 12,1 7,4 7 4 11 6 NNW 1030,7 9
20.10.2018 15:00:00 11,7 7,9 8 4 14 8 NO 1031,2 10
20.10.2018 14:00:00 10,7 7,7 7 4 - - N 1031,9 8
20.10.2018 13:00:00 8,7 8,1 7 4 11 6 O 1032,4 3,1
20.10.2018 12:00:00 7,7 7,6 7 4 11 6 NO 1032,7 0,4
20.10.2018 11:00:00 6,5 6,5 4 2 - - N 1032,2 0,1
20.10.2018 10:00:00 5,5 5,5 4 2 7 4 N 1031,9 0,1
20.10.2018 09:00:00 5,0 4,9 4 2 7 4 N 1031,0 0,1
20.10.2018 08:00:00 5,1 4,9 7 4 - - NNO 1030,7 0,1
20.10.2018 07:00:00 5,9 5,6 4 2 7 4 N 1029,7 -
20.10.2018 06:00:00 5,1 4,7 4 2 7 4 N 1029,7 0,1
20.10.2018 05:00:00 6,6 6,2 4 2 - - N 1028,9 1,1
20.10.2018 04:00:00 7,1 6,3 4 2 14 8 N 1028,5 2,4
20.10.2018 03:00:00 7,2 6,7 7 4 14 8 NNW 1028,2 2,4
20.10.2018 02:00:00 7,8 7,2 2 1 - - - 1028,0 1,4
20.10.2018 01:00:00 8,5 7,6 9 5 14 8 N 1027,7 3,3
20.10.2018 00:00:00 8,3 7,4 9 5 14 8 N 1027,4 5
19.10.2018 23:00:00 9,3 8,0 5 3 - - N 1027,0 5
19.10.2018 22:00:00 9,5 8,1 4 2 7 4 N 1026,7 4,6
19.10.2018 21:00:00 10,3 8,7 4 2 11 6 N 1026,4 6
19.10.2018 20:00:00 11,3 8,8 7 4 - - N 1026,0 8
19.10.2018 19:00:00 11,5 9,1 9 5 18 10 N 1024,5 7
19.10.2018 18:00:00 13,6 10,2 11 6 18 10 N 1024,0 10
19.10.2018 17:00:00 14,3 10,6 11 6 - - N 1023,7 12
19.10.2018 16:00:00 15,3 10,2 7 4 14 8 N 1023,2 12
19.10.2018 15:00:00 15,4 10,3 11 6 18 10 NNO 1023,5 10
19.10.2018 14:00:00 14,6 10,3 4 2 - - N 1024,0 10
19.10.2018 13:00:00 13,5 10,1 5 3 11 6 NO 1024,2 9
19.10.2018 12:00:00 11,9 9,7 7 4 11 6 N 1024,5 6
19.10.2018 11:00:00 10,5 9,5 7 4 - - ONO 1025,0 4,5
19.10.2018 10:00:00 9,8 9,5 11 6 14 8 NO 1024,7 2,0
19.10.2018 09:00:00 9,6 9,4 11 6 18 10 NO 1024,2 1,3
19.10.2018 08:00:00 9,6 9,6 11 6 - - NO 1024,0 0,3
19.10.2018 07:00:00 9,8 9,6 11 6 18 10 NO 1023,7 0,7
19.10.2018 06:00:00 9,6 9,5 7 4 14 8 NO 1023,7 0,1
19.10.2018 05:00:00 9,0 8,7 4 2 - - N 1023,8 0,1
19.10.2018 04:00:00 9,6 8,9 4 2 11 6 N 1023,7 1,9
19.10.2018 03:00:00 9,7 8,7 7 4 11 6 NO 1023,8 3,0
19.10.2018 02:00:00 10,7 9,3 7 4 - - NO 1024,0 4,9
19.10.2018 01:00:00 11,6 9,9 14 8 22 12 NO 1024,0 5
19.10.2018 00:00:00 11,3 10,3 14 8 29 16 NO 1024,2 4,1
18.10.2018 23:00:00 11,3 10,4 18 10 - - NO 1024,4 5
18.10.2018 22:00:00 11,1 10,2 18 10 29 16 NNO 1024,2 6
18.10.2018 21:00:00 11,1 10,1 13 7 22 12 NNO 1024,0 10
18.10.2018 20:00:00 11,5 9,8 14 8 - - NNO 1023,6 16
18.10.2018 19:00:00 11,9 9,2 11 6 18 10 NNO 1023,2 20
18.10.2018 18:00:00 13,6 10,3 11 6 22 12 NO 1023,0 20
18.10.2018 17:00:00 14,6 10,0 14 8 - - NO 1023,1 15
18.10.2018 16:00:00 14,8 10,3 18 10 29 16 NO 1023,2 15
18.10.2018 15:00:00 14,2 10,7 14 8 25 14 NNO 1023,6 15
18.10.2018 14:00:00 13,6 11,1 22 12 - - NNO 1023,7 10
18.10.2018 13:00:00 12,4 11,2 18 10 25 14 NNO 1024,0 4,0
18.10.2018 12:00:00 12,6 11,5 18 10 22 12 NNO 1023,7 5
18.10.2018 11:00:00 12,6 11,5 14 8 - - NNO 1023,6 4,0
18.10.2018 10:00:00 12,2 11,4 14 8 22 12 ONO 1023,2 4,0
18.10.2018 09:00:00 11,8 11,1 14 8 22 12 NO 1023,2 4,0
18.10.2018 08:00:00 11,6 11,0 11 6 - - NNO 1022,8 4,0
18.10.2018 07:00:00 11,6 10,9 4 2 14 8 N 1022,7 4,0
18.10.2018 06:00:00 11,6 10,8 7 4 11 6 N 1022,7 10
18.10.2018 05:00:00 11,6 11,0 11 6 - - N 1022,2 3,9
18.10.2018 04:00:00 11,6 11,0 11 6 18 10 NNO 1022,1 3,4
18.10.2018 03:00:00 11,6 10,9 14 8 18 10 NNO 1022,1 3,1
18.10.2018 02:00:00 11,6 10,9 11 6 - - NNO 1022,1 3,1
18.10.2018 01:00:00 11,7 11,0 11 6 18 10 N 1022,0 2,7
18.10.2018 00:00:00 12,2 11,3 11 6 14 8 NNO 1021,7 2,6
17.10.2018 23:00:00 12,7 11,4 11 6 - - NNO 1021,6 3,9
17.10.2018 22:00:00 13,2 11,6 11 6 14 8 NNO 1021,1 6
17.10.2018 21:00:00 13,6 11,6 11 6 14 8 NNO 1020,7 7
17.10.2018 20:00:00 14,4 11,8 7 4 - - NNO 1020,0 10
17.10.2018 19:00:00 15,0 12,3 7 4 11 6 N 1019,3 10
17.10.2018 18:00:00 16,9 13,0 7 4 11 6 N 1018,8 12
17.10.2018 17:00:00 18,3 12,4 7 4 - - N 1018,6 20
17.10.2018 16:00:00 18,7 12,3 7 4 11 6 NNO 1018,6 20
17.10.2018 15:00:00 19,1 12,0 4 2 11 6 N 1018,6 20
17.10.2018 14:00:00 18,3 11,9 4 2 - - N 1019,0 20
17.10.2018 13:00:00 17,6 11,3 4 2 11 6 N 1019,2 20
17.10.2018 12:00:00 16,4 10,8 4 2 7 4 N 1019,6 20
17.10.2018 11:00:00 14,6 10,4 4 2 - - N 1019,7 20
17.10.2018 10:00:00 13,3 10,1 4 2 4 2 N 1019,6 15
17.10.2018 09:00:00 9,6 8,4 4 2 4 2 N 1020,2 15
17.10.2018 08:00:00 10,0 8,4 4 2 - - N 1019,7 15
17.10.2018 07:00:00 10,1 8,1 4 2 4 2 N 1019,6 20
17.10.2018 06:00:00 11,0 8,5 4 2 4 2 N 1019,3 20
17.10.2018 05:00:00 12,1 8,4 4 2 - - N 1019,2 19
17.10.2018 04:00:00 10,9 7,8 4 2 7 4 N 1019,2 19
17.10.2018 03:00:00 11,3 8,6 4 2 7 4 N 1019,2 20
17.10.2018 02:00:00 11,1 8,5 4 2 - - N 1019,5 20
17.10.2018 01:00:00 13,4 9,0 4 2 4 2 N 1019,2 20
17.10.2018 00:00:00 13,3 9,4 4 2 7 4 N 1019,6 20
16.10.2018 23:00:00 16,1 9,4 4 2 - - N 1019,2 20
16.10.2018 22:00:00 14,6 9,4 4 2 4 2 N 1019,5 20
16.10.2018 21:00:00 15,1 10,4 4 2 4 2 N 1019,2 20
16.10.2018 20:00:00 16,7 10,6 4 2 - - N 1019,1 20
16.10.2018 19:00:00 18,7 10,3 7 4 11 6 W 1018,3 20
16.10.2018 18:00:00 21,7 7,7 7 4 14 8 ZZW 1017,7 20
16.10.2018 17:00:00 23,6 7,9 7 4 - - Z 1017,3 22
16.10.2018 16:00:00 23,4 8,9 11 6 18 10 Z 1017,5 22
16.10.2018 15:00:00 22,5 9,6 11 6 18 10 ZZO 1017,6 22
16.10.2018 14:00:00 22,3 9,0 11 6 - - ZO 1017,8 20
16.10.2018 13:00:00 20,6 9,7 4 2 7 4 N 1018,2 20
16.10.2018 12:00:00 16,9 11,1 4 2 11 6 N 1018,8 20
16.10.2018 11:00:00 13,8 10,1 4 2 - - N 1019,1 20
16.10.2018 10:00:00 12,5 8,5 7 4 7 4 O 1019,0 20
16.10.2018 09:00:00 10,2 8,1 4 2 4 2 N 1019,0 15
16.10.2018 08:00:00 10,5 7,5 4 2 - - N 1018,6 15
16.10.2018 07:00:00 11,1 7,7 4 2 4 2 N 1018,2 15
16.10.2018 06:00:00 11,6 7,6 4 2 7 4 N 1018,0 15
16.10.2018 05:00:00 11,6 7,3 4 2 - - N 1017,7 20
16.10.2018 04:00:00 12,1 7,6 4 2 14 8 N 1017,6 20
16.10.2018 03:00:00 12,4 8,7 4 2 11 6 N 1017,5 20
16.10.2018 02:00:00 13,8 8,4 7 4 - - OZO 1016,7 20
16.10.2018 01:00:00 15,0 8,7 7 4 7 4 OZO 1016,3 20
16.10.2018 00:00:00 15,8 8,4 4 2 7 4 N 1016,1 20
15.10.2018 23:00:00 15,9 8,6 4 2 - - N 1016,0 20
15.10.2018 22:00:00 15,0 8,5 4 2 4 2 N 1015,6 20
15.10.2018 21:00:00 17,6 8,1 4 2 4 2 N 1015,1 20
15.10.2018 20:00:00 15,7 8,5 4 2 - - N 1015,0 15
15.10.2018 19:00:00 17,5 10,2 4 2 11 6 N 1014,3 20
15.10.2018 18:00:00 21,7 7,5 7 4 18 10 N 1013,2 20
15.10.2018 17:00:00 22,2 7,3 11 6 - - ZW 1012,7 20
15.10.2018 16:00:00 22,4 7,2 18 10 32 18 ZW 1012,3 20

tt = temperatuur
td = dauwpunt
ff = windsnelheid
fx = windstoten
dd = windrichting
ppp = luchtdruk
vv = zicht

Weerstations in de omgeving